Time,TemperatureF,DewpointF,PressureIn,WindDirection,WindDirectionDegrees,WindSpeedMPH,WindSpeedGustMPH,Humidity,HourlyPrecipIn,Conditions,Clouds,dailyrainin,SoftwareType,DateUTC
2013-02-14 00:13:00,39.2,37.0,30.50,ENE,63,0.0,1.0,93,0.00,,,0.00,weatherlink.com 1.10,2013-02-14 08:13:00,
2013-02-14 00:28:00,38.7,37.0,30.52,East,79,0.0,1.0,94,0.00,,,0.00,weatherlink.com 1.10,2013-02-14 08:28:00,
2013-02-14 00:43:00,38.4,37.0,30.52,ENE,75,0.0,1.0,95,0.00,,,0.00,weatherlink.com 1.10,2013-02-14 08:43:00,
2013-02-14 00:58:00,38.0,36.0,30.53,ENE,76,0.0,1.0,93,0.00,,,0.00,weatherlink.com 1.10,2013-02-14 08:58:00,
2013-02-14 01:13:00,37.6,36.0,30.52,ENE,75,0.0,0.0,95,0.00,,,0.00,weatherlink.com 1.10,2013-02-14 09:13:00,
2013-02-14 01:28:00,38.0,37.0,30.52,NE,49,0.0,2.0,96,0.00,,,0.00,weatherlink.com 1.10,2013-02-14 09:28:00,
2013-02-14 01:43:00,38.7,38.0,30.52,NE,46,0.0,1.0,96,0.00,,,0.00,weatherlink.com 1.10,2013-02-14 09:43:00,
2013-02-14 01:58:00,39.1,38.0,30.53,NE,47,0.0,1.0,96,0.00,,,0.00,weatherlink.com 1.10,2013-02-14 09:58:00,
2013-02-14 02:13:00,38.9,38.0,30.53,NE,46,0.0,1.0,96,0.00,,,0.00,weatherlink.com 1.10,2013-02-14 10:13:00,
2013-02-14 02:28:00,38.8,38.0,30.53,ENE,57,0.0,1.0,96,0.00,,,0.00,weatherlink.com 1.10,2013-02-14 10:28:00,
2013-02-14 02:43:00,39.2,38.0,30.52,ENE,57,0.0,1.0,96,0.00,,,0.00,weatherlink.com 1.10,2013-02-14 10:43:00,
2013-02-14 02:58:00,39.1,38.0,30.52,NE,56,0.0,0.0,96,0.00,,,0.00,weatherlink.com 1.10,2013-02-14 10:58:00,
2013-02-14 03:13:00,38.3,37.0,30.52,ENE,57,0.0,1.0,94,0.00,,,0.00,weatherlink.com 1.10,2013-02-14 11:13:00,
2013-02-14 03:28:00,37.5,37.0,30.52,NNE,33,0.0,2.0,96,0.00,,,0.00,weatherlink.com 1.10,2013-02-14 11:28:00,
2013-02-14 03:43:00,37.8,37.0,30.51,ENE,78,1.0,1.0,96,0.00,,,0.00,weatherlink.com 1.10,2013-02-14 11:43:00,
2013-02-14 03:58:00,37.2,36.0,30.51,ENE,72,0.0,1.0,96,0.00,,,0.00,weatherlink.com 1.10,2013-02-14 11:58:00,
2013-02-14 04:13:00,36.8,36.0,30.52,ENE,75,0.0,0.0,96,0.00,,,0.00,weatherlink.com 1.10,2013-02-14 12:13:00,
2013-02-14 04:29:00,36.7,36.0,30.52,SE,131,0.0,1.0,97,0.00,,,0.00,weatherlink.com 1.10,2013-02-14 12:29:00,
2013-02-14 04:44:00,37.0,36.0,30.52,NE,53,0.0,1.0,97,0.00,,,0.00,weatherlink.com 1.10,2013-02-14 12:44:00,
2013-02-14 04:59:00,37.0,36.0,30.52,NE,54,0.0,1.0,97,0.00,,,0.00,weatherlink.com 1.10,2013-02-14 12:59:00,
2013-02-14 05:14:00,37.3,37.0,30.53,ENE,67,0.0,1.0,97,0.00,,,0.00,weatherlink.com 1.10,2013-02-14 13:14:00,
2013-02-14 05:29:00,36.5,36.0,30.53,ENE,65,0.0,0.0,97,0.00,,,0.00,weatherlink.com 1.10,2013-02-14 13:29:00,
2013-02-14 05:44:00,36.8,36.0,30.52,East,90,0.0,1.0,97,0.00,,,0.00,weatherlink.com 1.10,2013-02-14 13:44:00,
2013-02-14 05:59:00,36.6,36.0,30.52,West,275,0.0,1.0,97,0.00,,,0.00,weatherlink.com 1.10,2013-02-14 13:59:00,
2013-02-14 06:14:00,36.8,36.0,30.53,NW,315,0.0,1.0,97,0.00,,,0.00,weatherlink.com 1.10,2013-02-14 14:14:00,
2013-02-14 06:29:00,37.0,36.0,30.53,East,80,0.0,1.0,97,0.00,,,0.00,weatherlink.com 1.10,2013-02-14 14:29:00,
2013-02-14 06:44:00,37.1,36.0,30.53,East,79,0.0,0.0,97,0.00,,,0.00,weatherlink.com 1.10,2013-02-14 14:44:00,
2013-02-14 06:59:00,37.3,37.0,30.54,West,274,0.0,1.0,97,0.00,,,0.00,weatherlink.com 1.10,2013-02-14 14:59:00,
2013-02-14 07:14:00,36.9,36.0,30.54,West,276,0.0,1.0,97,0.00,,,0.00,weatherlink.com 1.10,2013-02-14 15:14:00,
2013-02-14 07:29:00,36.7,36.0,30.53,NE,55,1.0,1.0,97,0.00,,,0.00,weatherlink.com 1.10,2013-02-14 15:29:00,
2013-02-14 07:44:00,38.0,38.0,30.52,NNW,330,1.0,2.0,98,0.00,,,0.00,weatherlink.com 1.10,2013-02-14 15:44:00,
2013-02-14 07:59:00,37.7,37.0,30.54,NNW,344,2.0,3.0,96,0.00,,,0.00,weatherlink.com 1.10,2013-02-14 15:59:00,
2013-02-14 08:14:00,36.9,36.0,30.54,West,278,0.0,1.0,97,0.00,,,0.00,weatherlink.com 1.10,2013-02-14 16:14:00,
2013-02-14 08:29:00,37.0,37.0,30.55,West,274,0.0,1.0,98,0.00,,,0.00,weatherlink.com 1.10,2013-02-14 16:29:00,
2013-02-14 08:44:00,37.5,37.0,30.55,West,273,0.0,1.0,98,0.00,,,0.00,weatherlink.com 1.10,2013-02-14 16:44:00,
2013-02-14 08:59:00,38.1,38.0,30.56,WSW,253,0.0,1.0,98,0.00,,,0.00,weatherlink.com 1.10,2013-02-14 16:59:00,
2013-02-14 09:14:00,38.5,38.0,30.56,West,269,0.0,1.0,98,0.00,,,0.00,weatherlink.com 1.10,2013-02-14 17:14:00,
2013-02-14 09:29:00,38.8,38.0,30.56,West,269,0.0,0.0,98,0.01,,,0.01,weatherlink.com 1.10,2013-02-14 17:29:00,
2013-02-14 09:44:00,39.5,39.0,30.56,West,269,0.0,1.0,98,0.01,,,0.01,weatherlink.com 1.10,2013-02-14 17:44:00,
2013-02-14 09:59:00,39.6,39.0,30.55,West,268,0.0,0.0,97,0.01,,,0.01,weatherlink.com 1.10,2013-02-14 17:59:00,
2013-02-14 10:14:00,39.6,39.0,30.55,West,259,0.0,1.0,97,0.01,,,0.01,weatherlink.com 1.10,2013-02-14 18:14:00,
2013-02-14 10:29:00,39.7,39.0,30.55,SSW,194,0.0,1.0,97,0.01,,,0.02,weatherlink.com 1.10,2013-02-14 18:29:00,
2013-02-14 10:44:00,39.7,39.0,30.55,WSW,257,0.0,1.0,97,0.01,,,0.02,weatherlink.com 1.10,2013-02-14 18:44:00,
2013-02-14 10:59:00,39.8,39.0,30.56,West,276,0.0,1.0,97,0.01,,,0.02,weatherlink.com 1.10,2013-02-14 18:59:00,
2013-02-14 11:14:00,40.0,40.0,30.56,West,276,0.0,1.0,98,0.01,,,0.02,weatherlink.com 1.10,2013-02-14 19:14:00,
2013-02-14 11:29:00,40.7,40.0,30.57,West,276,0.0,1.0,98,0.00,,,0.02,weatherlink.com 1.10,2013-02-14 19:29:00,
2013-02-14 11:44:00,40.9,40.0,30.57,West,273,0.0,0.0,98,0.00,,,0.02,weatherlink.com 1.10,2013-02-14 19:44:00,
2013-02-14 11:59:00,41.4,41.0,30.56,SSW,198,0.0,1.0,98,0.00,,,0.02,weatherlink.com 1.10,2013-02-14 19:59:00,
2013-02-14 12:14:00,42.1,42.0,30.56,West,259,2.0,2.0,98,0.00,,,0.02,weatherlink.com 1.10,2013-02-14 20:14:00,
2013-02-14 12:29:00,42.9,42.0,30.55,SW,236,0.0,2.0,98,0.00,,,0.02,weatherlink.com 1.10,2013-02-14 20:29:00,
2013-02-14 12:44:00,43.4,43.0,30.55,SSE,153,1.0,5.0,98,0.00,,,0.02,weatherlink.com 1.10,2013-02-14 20:44:00,
2013-02-14 12:59:00,43.8,43.0,30.55,SSE,163,0.0,2.0,97,0.00,,,0.02,weatherlink.com 1.10,2013-02-14 20:59:00,
2013-02-14 13:14:00,44.3,44.0,30.55,SSE,150,0.0,2.0,97,0.00,,,0.02,weatherlink.com 1.10,2013-02-14 21:14:00,
2013-02-14 13:29:00,44.8,44.0,30.55,SSW,198,1.0,1.0,97,0.00,,,0.02,weatherlink.com 1.10,2013-02-14 21:29:00,
2013-02-14 13:44:00,45.2,44.0,30.55,SSW,212,2.0,3.0,96,0.00,,,0.02,weatherlink.com 1.10,2013-02-14 21:44:00,
2013-02-14 13:59:00,45.3,44.0,30.55,SE,140,2.0,3.0,96,0.00,,,0.02,weatherlink.com 1.10,2013-02-14 21:59:00,
2013-02-14 14:14:00,45.6,45.0,30.55,South,169,0.0,5.0,97,0.00,,,0.02,weatherlink.com 1.10,2013-02-14 22:14:00,
2013-02-14 14:29:00,45.4,44.0,30.55,SW,233,0.0,2.0,96,0.00,,,0.02,weatherlink.com 1.10,2013-02-14 22:29:00,
2013-02-14 14:44:00,45.3,45.0,30.54,SW,235,0.0,2.0,97,0.01,,,0.03,weatherlink.com 1.10,2013-02-14 22:44:00,
2013-02-14 14:59:00,45.3,45.0,30.55,ESE,117,0.0,1.0,97,0.01,,,0.03,weatherlink.com 1.10,2013-02-14 22:59:00,
2013-02-14 15:14:00,45.3,45.0,30.54,West,278,1.0,1.0,97,0.01,,,0.03,weatherlink.com 1.10,2013-02-14 23:14:00,
2013-02-14 15:29:00,45.2,44.0,30.54,West,270,0.0,1.0,97,0.01,,,0.03,weatherlink.com 1.10,2013-02-14 23:29:00,
2013-02-14 15:44:00,45.7,45.0,30.53,SSW,198,0.0,1.0,97,0.00,,,0.03,weatherlink.com 1.10,2013-02-14 23:44:00,
2013-02-14 15:59:00,45.4,45.0,30.53,WSW,256,1.0,1.0,97,0.00,,,0.03,weatherlink.com 1.10,2013-02-14 23:59:00,
2013-02-14 16:14:00,45.4,45.0,30.53,WSW,239,0.0,1.0,97,0.00,,,0.03,weatherlink.com 1.10,2013-02-15 00:14:00,
2013-02-14 16:29:00,45.3,45.0,30.53,West,271,0.0,1.0,97,0.00,,,0.03,weatherlink.com 1.10,2013-02-15 00:29:00,
2013-02-14 16:44:00,45.2,44.0,30.53,West,280,0.0,1.0,97,0.00,,,0.03,weatherlink.com 1.10,2013-02-15 00:44:00,
2013-02-14 17:00:00,45.2,45.0,30.53,WSW,252,0.0,1.0,98,0.00,,,0.03,weatherlink.com 1.10,2013-02-15 01:00:00,
2013-02-14 17:15:00,45.0,45.0,30.53,West,274,0.0,1.0,98,0.00,,,0.03,weatherlink.com 1.10,2013-02-15 01:15:00,
2013-02-14 17:30:00,44.9,44.0,30.53,West,274,0.0,1.0,98,0.00,,,0.03,weatherlink.com 1.10,2013-02-15 01:30:00,
2013-02-14 17:45:00,44.8,44.0,30.53,NNW,345,0.0,1.0,98,0.00,,,0.03,weatherlink.com 1.10,2013-02-15 01:45:00,
2013-02-14 18:00:00,44.6,44.0,30.52,NNW,346,0.0,0.0,98,0.00,,,0.03,weatherlink.com 1.10,2013-02-15 02:00:00,
2013-02-14 18:15:00,44.3,44.0,30.52,NNW,347,0.0,0.0,98,0.00,,,0.03,weatherlink.com 1.10,2013-02-15 02:15:00,
2013-02-14 18:30:00,43.9,43.0,30.52,NNW,347,0.0,0.0,98,0.00,,,0.03,weatherlink.com 1.10,2013-02-15 02:30:00,
2013-02-14 18:45:00,43.6,43.0,30.52,NE,43,0.0,1.0,98,0.00,,,0.03,weatherlink.com 1.10,2013-02-15 02:45:00,
2013-02-14 19:00:00,43.8,43.0,30.52,NE,44,0.0,1.0,98,0.00,,,0.03,weatherlink.com 1.10,2013-02-15 03:00:00,
2013-02-14 19:15:00,43.7,43.0,30.52,NE,43,0.0,0.0,98,0.00,,,0.03,weatherlink.com 1.10,2013-02-15 03:15:00,
2013-02-14 19:30:00,43.7,43.0,30.51,NE,44,0.0,1.0,98,0.00,,,0.03,weatherlink.com 1.10,2013-02-15 03:30:00,
2013-02-14 19:45:00,44.1,44.0,30.52,NE,44,0.0,1.0,99,0.00,,,0.03,weatherlink.com 1.10,2013-02-15 03:45:00,
2013-02-14 20:00:00,44.3,44.0,30.52,NE,49,0.0,1.0,99,0.00,,,0.03,weatherlink.com 1.10,2013-02-15 04:00:00,
2013-02-14 20:15:00,44.4,44.0,30.52,NE,50,0.0,1.0,98,0.00,,,0.03,weatherlink.com 1.10,2013-02-15 04:15:00,
2013-02-14 20:30:00,44.5,44.0,30.52,NE,50,0.0,1.0,98,0.00,,,0.03,weatherlink.com 1.10,2013-02-15 04:30:00,
2013-02-14 20:45:00,44.7,44.0,30.52,NE,49,0.0,1.0,98,0.00,,,0.03,weatherlink.com 1.10,2013-02-15 04:45:00,
2013-02-14 21:00:00,44.9,44.0,30.52,North,359,0.0,2.0,98,0.00,,,0.03,weatherlink.com 1.10,2013-02-15 05:00:00,
2013-02-14 21:15:00,45.1,44.0,30.52,NE,37,0.0,1.0,97,0.00,,,0.03,weatherlink.com 1.10,2013-02-15 05:15:00,
2013-02-14 21:30:00,45.3,44.0,30.52,NE,37,0.0,1.0,96,0.00,,,0.03,weatherlink.com 1.10,2013-02-15 05:30:00,
2013-02-14 21:45:00,45.0,44.0,30.52,NE,35,0.0,0.0,97,0.00,,,0.03,weatherlink.com 1.10,2013-02-15 05:45:00,
2013-02-14 22:00:00,45.1,44.0,30.52,NE,44,0.0,1.0,97,0.00,,,0.03,weatherlink.com 1.10,2013-02-15 06:00:00,
2013-02-14 22:15:00,45.2,44.0,30.52,NNE,19,0.0,1.0,96,0.00,,,0.03,weatherlink.com 1.10,2013-02-15 06:15:00,
2013-02-14 22:30:00,45.3,44.0,30.52,NE,46,1.0,2.0,96,0.00,,,0.03,weatherlink.com 1.10,2013-02-15 06:30:00,
2013-02-14 22:45:00,45.5,44.0,30.52,NNE,22,0.0,1.0,94,0.00,,,0.03,weatherlink.com 1.10,2013-02-15 06:45:00,
2013-02-14 23:00:00,45.3,44.0,30.52,NNE,26,1.0,3.0,94,0.00,,,0.03,weatherlink.com 1.10,2013-02-15 07:00:00,
2013-02-14 23:15:00,45.1,44.0,30.52,North,349,0.0,0.0,94,0.00,,,0.03,weatherlink.com 1.10,2013-02-15 07:15:00,
2013-02-14 23:30:00,44.7,43.0,30.51,NNW,348,0.0,0.0,95,0.00,,,0.03,weatherlink.com 1.10,2013-02-15 07:30:00,
2013-02-14 23:45:00,44.3,43.0,30.51,NNE,21,0.0,1.0,96,0.00,,,0.03,weatherlink.com 1.10,2013-02-15 07:45:00,